El Segundo, CA

6:19 PM PST on February 20, 2017 (GMT -0800)
Los Angeles International

Weather History for KLAX - July, 2013

Change the Weather History Date:

Monday, July 8, 2013

  Actual Average Record
Temperature  
Mean Temperature 70 °F 68 °F  
Max Temperature 75 °F 74 °F 92 °F (1992)
Min Temperature 64 °F 63 °F 53 °F (1996)
Degree Days  
Heating Degree Days 0 0  
Month to date heating degree days 0 0  
Since 1 June heating degree days 0 25  
Since 1 July heating degree days 0 0  
Cooling Degree Days 5 3  
Month to date cooling degree days 44 24  
Year to date cooling degree days 218 106  
Since 1 June cooling degree days 137 66  
Growing Degree Days 20 (Base 50)    
Moisture  
Dew Point 61 °F    
Average Humidity 74    
Maximum Humidity 87    
Minimum Humidity 61    
Precipitation  
Precipitation 0.00 in 0.00 in 0.10 in (1991)
Month to date precipitation 0.00 0.01  
Year to date precipitation 2.61 8.82  
Since 1 July precipitation 0.00  
Sea Level Pressure  
Sea Level Pressure 29.90 in    
Wind  
Wind Speed 8 mph (WSW)    
Max Wind Speed 22 mph    
Max Gust Speed 24 mph    
Visibility 10 miles    
Events      
T = Trace of Precipitation, MM = Missing Value Source: NWS Daily Summary

Daily Weather History Graph

Daily Weather History Graph

Search for Another Location

Airport or City:

Trip Planner

Search our weather history database for the weather conditions in past years. The results will help you decide how hot, cold, wet, or windy it might be!

Date:

Astronomy

Jul. 08, 2013 Rise Set
Actual Time 5:49 AM PDT 8:07 PM PDT
Civil Twilight 5:20 AM PDT 8:36 PM PDT
Nautical Twilight 4:45 AM PDT 9:11 PM PDT
Astronomical Twilight 4:07 AM PDT 9:49 PM PDT
Moon 6:18 AM PDT (7/8) 8:18 PM PDT (7/8)
Length of Visible Light 15h 15m
Length of Day
14h 17m
New Moon, 0% of the Moon is Illuminated
Jul 8
New Moon
Jul 15
First Quarter
Jul 22
Full
Jul 29
Last Quarter
Aug 6
New

Hourly Weather History & Observations

Time (PDT) Temp. Dew Point Humidity Pressure Visibility Wind Dir Wind Speed Gust Speed Precip Events Conditions
12:53 AM 64.9 °F 60.1 °F 84% 29.87 in 10.0 mi WSW 4.6 mph - N/A   Partly Cloudy
1:53 AM 64.9 °F 60.1 °F 84% 29.87 in 10.0 mi West 5.8 mph - N/A   Partly Cloudy
2:53 AM 64.0 °F 60.1 °F 87% 29.86 in 10.0 mi West 3.5 mph - N/A   Clear
3:53 AM 64.0 °F 60.1 °F 87% 29.86 in 10.0 mi WSW 3.5 mph - N/A   Partly Cloudy
4:53 AM 64.0 °F 61.0 °F 90% 29.87 in 10.0 mi Calm Calm - N/A   Partly Cloudy
5:53 AM 64.9 °F 61.0 °F 87% 29.88 in 9.0 mi Calm Calm - N/A   Scattered Clouds
6:53 AM 66.0 °F 61.0 °F 84% 29.89 in 10.0 mi WSW 4.6 mph - N/A   Scattered Clouds
7:53 AM 68.0 °F 62.1 °F 81% 29.91 in 10.0 mi West 3.5 mph - N/A   Scattered Clouds
8:53 AM 70.0 °F 62.1 °F 76% 29.92 in 10.0 mi West 6.9 mph - N/A   Scattered Clouds
9:53 AM 71.1 °F 62.1 °F 73% 29.92 in 10.0 mi WSW 9.2 mph - N/A   Partly Cloudy
10:53 AM 71.1 °F 62.1 °F 73% 29.94 in 10.0 mi WSW 8.1 mph - N/A   Partly Cloudy
11:53 AM 73.0 °F 62.1 °F 68% 29.93 in 10.0 mi WSW 9.2 mph - N/A   Partly Cloudy
12:53 PM 73.9 °F 61.0 °F 64% 29.92 in 10.0 mi West 12.7 mph - N/A   Partly Cloudy
1:53 PM 73.0 °F 60.1 °F 64% 29.92 in 10.0 mi West 13.8 mph - N/A   Partly Cloudy
2:53 PM 73.9 °F 61.0 °F 64% 29.91 in 10.0 mi West 15.0 mph - N/A   Partly Cloudy
3:53 PM 73.0 °F 60.1 °F 64% 29.89 in 10.0 mi West 17.3 mph - N/A   Partly Cloudy
4:53 PM 73.0 °F 59.0 °F 61% 29.88 in 10.0 mi West 16.1 mph - N/A   Clear
5:53 PM 71.1 °F 61.0 °F 70% 29.86 in 10.0 mi West 17.3 mph - N/A   Clear
6:53 PM 69.1 °F 60.1 °F 73% 29.87 in 10.0 mi WSW 12.7 mph - N/A   Clear
7:53 PM 69.1 °F 61.0 °F 75% 29.87 in 10.0 mi WSW 9.2 mph - N/A   Clear
8:53 PM 68.0 °F 61.0 °F 78% 29.88 in 10.0 mi SW 8.1 mph - N/A   Clear
9:53 PM 68.0 °F 61.0 °F 78% 29.90 in 10.0 mi WSW 3.5 mph - N/A   Clear
10:53 PM 68.0 °F 61.0 °F 78% 29.91 in 10.0 mi Calm Calm - N/A   Clear
11:53 PM 66.9 °F 62.1 °F 84% 29.93 in 10.0 mi SSW 4.6 mph - N/A   Clear